Theta_e
362 360 360 350 330 327 319 320 327 325 327 334 335 331 328 330 328 321 347 347 347 350 350 355 364 366 363 365 364 361 362 363 364 361 360 360 361 362 361 363 362 361 363 362 359 358 358 358 363
359 357 354 345 324 316 318 325 324 327 332 333 333 334 329 329 338 339 341 346 350 350 351 353 364 366 365 365 366 366 362 362 362 361 360 361 361 361 361 361 361 363 364 361 361 360 359 361 362
360 357 343 336 321 314 318 325 326 330 334 333 330 334 331 330 337 340 346 348 352 351 352 356 363 365 366 364 365 365 363 362 362 361 361 361 361 360 360 361 361 362 364 361 360 360 361 362 362
355 350 345 326 316 321 324 328 329 329 332 333 333 326 333 339 338 343 348 350 349 351 352 359 363 364 364 363 365 364 362 362 362 361 360 362 359 360 360 361 361 362 361 361 361 361 360 360 359
354 347 329 318 319 323 329 331 331 328 330 330 332 326 327 336 340 346 349 350 348 350 352 356 365 364 364 364 365 363 362 361 360 360 360 359 359 359 360 360 361 361 360 361 360 360 359 359 359
330 336 324 315 318 324 327 331 330 330 330 331 330 328 328 339 342 345 349 349 350 350 351 354 362 364 364 364 363 363 362 360 360 359 359 359 359 358 360 362 361 361 362 361 360 358 358 358 358
331 323 315 318 319 322 325 330 328 328 329 329 334 328 331 336 344 346 348 350 350 349 349 351 355 360 362 362 362 361 361 360 360 360 357 359 360 360 359 361 362 362 362 361 360 359 358 358 356
332 332 318 319 319 319 327 328 331 330 330 337 336 327 325 336 343 345 347 347 347 348 347 350 354 353 355 356 362 362 361 361 361 361 360 361 360 361 360 363 363 362 361 361 359 358 357 356 355
333 327 319 321 322 323 328 325 330 335 331 334 336 335 335 338 339 340 341 343 345 347 345 346 349 353 355 358 361 362 363 362 361 361 360 361 360 359 360 362 363 362 361 360 359 358 358 356 357
330 325 321 328 329 327 327 327 329 329 329 332 333 336 336 335 338 336 337 339 341 343 344 347 348 349 354 353 359 361 360 358 360 361 361 361 359 356 358 360 363 362 362 359 359 358 358 356 352
334 324 329 330 333 333 329 328 331 327 326 330 328 328 331 332 334 334 337 338 341 345 348 349 349 355 355 358 359 359 359 358 360 366 364 360 362 360 355 359 359 360 362 358 355 355 355 354 355
324 330 330 332 334 333 330 331 328 329 329 334 333 331 332 331 331 332 335 337 339 343 346 349 353 352 354 354 357 359 355 359 358 360 364 360 360 360 355 357 356 358 357 358 358 354 355 360 353
325 328 331 334 334 334 334 330 329 329 333 334 333 332 331 331 331 332 334 338 340 340 346 348 351 352 359 365 361 358 352 357 356 357 362 360 361 356 352 353 354 352 358 356 358 355 356 352 353
328 329 328 332 333 334 331 327 331 332 334 332 331 331 332 331 331 333 335 338 340 344 346 348 352 359 360 364 366 364 364 364 353 360 358 370 365 360 356 360 354 354 355 355 354 351 354 357 351
329 324 321 329 332 327 323 320 325 334 333 332 331 332 334 333 335 335 338 340 343 344 346 349 352 355 361 363 361 363 363 355 358 358 362 367 370 360 356 354 353 349 358 359 355 357 353 350 349
320 322 316 327 332 327 322 311 323 335 332 330 332 332 334 335 335 338 339 341 344 346 348 350 349 353 356 357 360 358 358 359 353 359 363 368 365 361 362 359 354 356 357 357 357 357 352 350 355
317 311 314 320 328 329 325 318 329 336 333 331 332 333 333 334 337 339 341 343 344 347 350 348 352 351 355 360 363 362 363 360 363 364 365 367 365 364 357 358 359 358 359 358 355 357 357 352 352
311 312 314 316 318 320 321 323 330 333 333 332 332 333 334 334 335 339 341 343 344 347 349 350 350 355 356 357 358 359 364 366 362 360 362 366 367 362 355 358 357 360 359 360 355 360 358 352 352
318 315 315 318 322 319 319 321 329 331 333 332 332 333 334 335 339 340 341 342 342 345 348 350 353 360 356 353 354 357 357 359 359 364 361 361 365 364 360 360 356 357 360 359 359 359 358 354 358
313 313 314 317 320 320 317 318 327 330 329 333 334 334 335 336 337 340 340 340 340 345 349 352 355 359 356 356 356 357 358 361 354 357 363 364 366 366 364 361 360 356 363 360 359 358 355 355 360
311 311 312 314 318 320 316 317 321 324 328 330 333 336 337 337 336 338 339 339 341 346 349 354 356 358 357 362 360 361 357 350 345 339 334 361 367 367 367 364 364 359 364 357 360 364 359 352 354
307 313 312 311 311 308 318 308 317 316 318 328 329 332 335 337 338 339 339 337 340 346 352 356 354 360 359 363 362 362 353 350 346 349 345 359 366 367 366 364 368 364 363 363 360 361 360 356 349
309 313 312 311 310 310 313 310 315 319 317 325 327 331 333 339 339 338 339 340 340 344 349 354 356 362 360 361 365 361 361 358 349 344 345 359 362 367 365 366 370 365 365 361 362 363 363 359 354
315 312 312 311 309 304 310 309 309 313 319 320 322 326 331 335 339 341 341 342 341 344 348 351 357 359 364 364 363 365 366 360 358 348 349 355 361 363 364 365 367 367 362 365 364 366 363 360 362
315 310 303 302 302 302 310 308 310 318 320 321 322 323 325 333 340 340 339 339 341 341 345 348 356 359 362 366 364 363 365 368 364 358 353 355 354 358 362 366 361 357 363 367 368 366 364 364 361
312 310 303 298 299 302 309 305 308 317 324 325 327 327 330 329 339 340 342 341 342 343 345 348 356 358 362 361 366 367 366 363 363 364 359 358 353 356 362 365 363 360 364 367 367 365 360 363 363
310 308 312 306 307 302 305 310 315 320 321 324 328 331 333 334 336 340 341 341 343 344 347 349 356 360 361 363 365 367 367 366 361 365 367 364 370 353 363 363 362 364 364 365 365 360 359 364 363
313 315 305 306 300 298 304 308 309 316 318 323 328 332 338 338 337 341 342 343 345 345 349 351 360 360 362 362 365 365 367 368 367 369 371 366 370 368 359 363 365 364 364 363 366 360 362 362 361
311 309 308 309 308 301 299 304 318 320 322 323 329 337 339 339 338 341 342 344 345 346 347 349 357 359 362 361 362 364 364 365 367 365 367 372 370 375 365 366 365 365 364 367 364 361 362 361 359
313 309 308 303 304 307 306 307 321 322 326 330 333 337 340 341 341 343 343 344 345 346 347 348 353 358 359 359 363 363 365 365 364 364 365 367 369 375 371 368 368 366 363 364 362 360 357 359 359
Wind_Speed
13 13 8 3 3 3 6 4 10 10 8 11 13 15 19 12 7 8 9 10 11 11 14 12 11 13 14 13 12 13 12 12 10 8 9 9 8 10 10 10 11 9 12 14 16 15 14 13 13
12 8 2 4 4 5 6 14 6 8 13 14 10 12 15 18 13 15 11 11 8 15 14 14 10 14 15 14 12 12 12 12 11 8 8 8 7 8 8 10 10 12 12 14 15 13 13 13 13
11 5 4 5 5 7 8 16 10 13 13 8 6 13 7 7 8 3 15 17 11 9 14 14 13 14 15 14 12 11 10 11 11 9 7 6 7 7 8 9 10 11 11 14 11 14 11 11 12
4 3 6 5 13 16 19 13 13 13 9 7 11 10 7 6 4 6 16 8 8 12 13 15 15 14 14 14 12 11 10 8 7 7 6 6 6 6 7 10 10 10 11 12 13 12 11 10 10
4 6 6 11 12 13 18 16 11 9 13 13 10 10 8 1 2 11 10 9 15 10 15 15 13 14 13 12 12 11 9 8 6 5 4 4 5 5 7 9 10 9 11 11 12 11 10 9 8
10 6 5 11 12 11 8 16 11 17 12 10 16 12 8 9 4 7 7 9 14 18 17 15 14 12 11 11 10 10 9 7 7 5 3 3 4 4 6 8 9 10 11 11 10 9 9 8 7
13 1 12 8 12 10 9 9 12 13 16 14 17 11 14 14 10 4 11 11 4 20 18 14 13 12 12 11 11 9 8 8 6 5 3 2 6 5 5 6 10 9 11 11 10 9 7 6 5
8 3 7 2 12 10 7 10 8 8 17 21 19 8 18 18 15 8 6 8 8 9 18 14 12 12 10 10 10 9 8 8 6 4 5 5 6 6 7 7 8 9 10 9 9 8 8 7 6
6 4 7 11 15 10 10 12 11 14 10 17 15 12 26 23 15 7 5 10 5 10 16 17 15 14 12 11 10 11 10 9 8 8 9 7 6 7 9 9 10 9 9 8 8 8 8 8 8
5 6 14 17 18 9 12 15 10 10 11 21 22 27 27 22 16 9 6 7 8 5 15 14 13 13 10 9 10 7 7 6 7 8 8 6 5 2 5 9 11 11 9 8 7 7 7 7 3
8 10 17 16 12 8 15 9 9 10 13 18 25 28 28 24 18 11 8 7 13 9 1 12 3 8 10 8 6 6 6 5 5 5 6 6 3 6 6 5 6 4 9 6 6 6 5 9 4
9 10 12 11 10 7 8 7 5 4 16 23 24 28 26 26 21 19 16 13 9 11 11 13 11 8 4 6 6 6 3 5 4 7 7 4 4 4 4 3 5 5 3 4 5 4 5 7 9
11 7 10 11 7 11 5 4 8 14 20 24 25 26 25 24 23 21 20 19 17 18 17 13 15 14 9 5 2 2 6 6 6 5 6 5 3 0 5 2 6 6 5 6 4 2 4 2 2
10 1 6 10 9 11 12 8 10 14 20 26 24 24 23 24 25 23 23 22 21 13 21 16 19 13 9 7 1 0 2 3 7 3 6 5 3 2 7 4 3 2 3 3 2 5 1 4 5
25 21 33 12 13 9 23 18 7 14 18 24 25 21 20 23 24 22 21 18 18 17 16 18 14 13 7 6 3 3 3 3 1 4 6 5 5 3 3 4 4 4 4 2 5 4 3 1 4
29 10 10 13 15 13 23 17 30 15 19 22 23 21 21 22 24 20 18 17 16 16 13 10 12 16 11 9 7 6 5 4 2 4 4 6 6 5 2 3 3 3 4 2 4 4 3 4 3
3 11 22 11 11 20 15 18 29 24 19 19 21 21 20 21 23 21 20 18 20 15 16 15 14 15 13 10 6 5 5 5 4 3 4 7 5 6 5 4 4 4 4 3 5 4 4 3 3
7 13 24 3 5 3 8 21 17 19 20 19 19 20 20 20 21 20 20 17 16 15 14 14 13 13 15 7 5 5 3 3 4 4 4 5 2 7 5 4 5 4 4 2 3 4 3 2 4
20 16 14 19 20 18 8 0 17 14 19 17 19 18 19 20 20 19 19 17 16 16 15 15 12 11 12 9 8 6 5 6 6 4 7 7 6 7 6 5 6 5 5 4 3 3 6 5 3
14 15 1 12 20 22 16 4 8 6 12 19 19 20 19 20 19 18 18 17 16 15 14 14 10 12 13 11 8 7 7 5 3 3 6 10 8 6 6 7 6 9 4 5 6 6 2 2 1
16 15 16 8 18 26 16 10 18 1 20 5 12 17 19 20 19 20 19 17 17 14 15 14 11 12 10 8 6 6 4 3 4 2 4 9 8 6 5 7 5 7 6 6 5 2 2 3 2
14 13 15 15 10 13 9 5 5 10 23 6 7 11 16 18 18 19 19 20 18 15 15 15 14 13 11 10 9 8 7 6 3 4 8 11 7 7 8 6 5 5 5 5 6 5 5 5 2
12 14 11 14 14 17 17 8 9 12 12 13 13 12 13 18 19 19 19 19 19 17 16 15 16 13 12 12 9 7 8 4 10 7 9 7 5 7 5 7 5 6 3 7 7 5 5 4 3
11 12 15 13 12 11 16 5 11 7 19 11 9 10 12 16 19 17 18 19 17 17 17 16 16 15 12 13 13 10 6 8 8 12 11 9 6 6 6 7 4 3 5 4 4 5 3 4 3
14 14 10 8 9 9 20 11 10 24 16 9 6 2 7 12 19 17 20 18 17 17 19 16 17 15 15 13 14 14 10 8 6 9 7 8 3 7 10 8 7 4 5 4 4 5 4 5 4
12 14 8 10 8 9 6 4 14 6 14 8 8 7 4 7 20 20 18 16 17 17 18 17 18 17 16 15 13 11 12 8 7 7 8 7 8 9 13 11 9 9 7 5 5 4 6 7 4
9 11 16 13 9 9 7 1 16 15 13 9 11 8 9 13 18 20 19 17 17 15 16 17 17 17 17 16 12 12 11 11 10 9 7 5 4 8 9 12 12 10 8 8 8 5 7 5 5
8 8 10 6 8 8 8 12 9 12 10 11 13 8 7 11 11 18 15 16 17 18 15 17 16 19 18 16 14 11 12 11 10 8 7 7 5 8 10 10 12 9 8 10 9 7 8 6 6
5 11 12 13 9 9 9 5 13 10 9 9 11 9 5 5 7 19 22 18 15 16 16 17 17 18 15 14 13 13 12 13 12 10 9 7 7 4 11 8 8 8 8 6 7 8 6 9 6
6 7 9 8 6 10 11 7 20 6 11 9 9 7 6 8 12 8 8 6 8 13 13 13 16 17 17 14 11 13 12 11 12 12 10 10 8 6 8 10 8 8 9 10 10 10 7 7 7
Wind_Direction
179 194 194 184 229 215 129 93 101 118 108 76 65 83 90 44 48 104 135 133 165 136 133 146 145 139 134 131 136 132 125 124 112 106 96 88 88 83 83 81 77 86 92 89 95 101 113 111 108
195 192 233 246 230 115 87 128 110 88 96 113 70 93 79 63 74 119 116 151 169 148 146 140 142 139 139 139 140 133 133 126 121 113 101 97 90 87 77 79 85 91 97 95 104 108 106 113 110
260 241 276 224 53 82 102 107 108 104 117 101 98 68 51 87 71 98 131 149 162 142 138 126 140 141 143 144 139 134 138 136 130 128 113 104 84 85 85 85 90 96 100 103 105 112 106 101 106
249 256 244 267 73 65 121 130 135 129 132 86 114 85 85 345 90 143 134 182 134 141 129 136 143 145 143 147 146 145 145 136 128 125 120 106 94 87 92 94 103 109 106 103 112 111 110 105 106
213 266 269 92 76 77 124 123 141 132 127 136 144 112 92 3 25 129 141 190 141 123 134 142 146 148 147 152 150 149 153 148 141 142 131 117 111 88 99 105 114 116 116 113 113 114 117 117 118
23 331 284 85 98 96 78 131 127 132 127 144 107 114 130 148 142 144 208 204 149 155 143 145 149 150 151 157 153 155 161 159 153 161 153 124 136 104 110 118 122 127 124 117 118 121 123 122 124
158 48 20 61 88 101 104 76 104 131 154 151 132 121 127 159 178 163 199 213 201 162 135 146 157 157 162 164 165 165 174 176 172 174 183 159 160 151 142 137 131 137 132 126 128 130 128 131 135
162 181 209 224 95 95 101 90 103 99 94 124 152 153 161 161 159 164 242 234 225 185 140 149 149 158 171 172 176 184 191 196 194 204 205 190 179 176 163 160 148 145 141 142 147 150 153 163 182
149 196 82 42 94 110 123 95 71 88 123 144 169 142 147 146 150 173 210 228 171 149 150 159 157 169 186 159 173 182 191 193 190 198 209 207 222 183 172 179 151 153 148 156 163 171 176 189 208
259 234 63 68 100 111 99 94 121 126 118 94 91 110 131 146 148 154 208 155 116 264 161 144 166 179 147 173 149 179 191 192 195 195 181 217 173 247 174 152 157 160 162 169 184 193 201 220 201
258 23 82 78 71 111 101 120 155 137 123 124 134 139 144 151 153 172 202 207 182 183 61 139 193 172 166 139 164 192 195 201 190 168 196 207 154 188 152 157 165 159 179 178 193 194 218 165 224
189 70 64 79 103 119 105 130 119 126 113 125 140 147 152 158 165 172 190 190 184 181 204 175 163 105 203 166 187 185 141 184 185 190 192 148 198 246 136 184 155 163 169 221 233 199 210 242 182
28 45 101 101 128 119 121 85 93 103 121 126 143 154 161 166 171 175 187 189 201 189 213 173 153 188 183 171 167 79 179 199 198 175 179 183 124 81 123 213 96 202 247 192 194 219 233 190 264
334 263 74 119 126 97 74 6 332 123 136 137 153 165 168 175 176 182 198 184 190 197 181 183 168 159 161 169 153 317 283 304 177 176 155 176 109 181 154 143 120 255 270 263 35 154 161 33 329
4 346 1 158 135 109 61 346 278 155 149 149 160 175 175 179 185 186 199 179 179 182 183 176 152 148 172 136 170 238 281 313 305 123 141 181 155 127 135 140 166 230 285 219 171 104 99 274 277
40 356 336 136 143 138 96 266 270 197 160 162 167 174 179 186 190 197 193 184 186 188 174 184 178 160 169 162 186 215 215 168 202 170 171 170 173 177 175 145 196 216 249 211 159 153 168 217 244
16 271 284 168 178 159 146 215 253 161 172 174 175 178 184 187 192 191 194 205 183 189 170 184 176 167 165 172 163 220 233 157 182 183 184 161 208 149 199 171 198 223 242 238 154 147 194 210 237
232 185 243 272 120 239 236 161 155 157 166 180 182 182 187 192 198 190 201 191 201 177 173 175 170 157 160 154 193 216 216 207 165 192 177 162 221 135 170 169 188 218 244 238 154 158 215 213 225
200 280 328 11 338 323 288 353 147 166 167 180 184 191 190 196 193 200 190 185 197 177 175 169 170 154 155 167 188 209 203 211 200 185 173 157 173 170 174 182 161 196 209 201 168 194 222 203 204
298 288 32 46 322 293 276 347 140 111 189 176 187 186 197 190 196 190 183 196 190 184 169 163 180 158 169 166 180 211 204 196 99 341 304 172 155 165 180 165 179 180 183 180 194 202 329 296 245
282 285 286 168 229 254 255 60 74 14 340 205 191 193 189 190 194 181 190 192 183 182 169 164 176 167 170 163 171 205 99 53 350 32 354 259 146 172 213 169 184 196 155 173 193 195 192 267 286
281 325 341 325 308 280 246 118 1 137 263 305 213 195 187 188 191 181 187 185 193 179 169 164 174 167 171 183 189 198 200 177 183 324 248 227 142 172 176 190 178 191 177 197 184 192 207 211 234
303 310 318 290 280 282 273 267 119 189 272 265 203 197 208 179 185 190 185 184 200 179 173 172 174 179 178 186 216 194 217 171 136 195 296 259 182 178 213 185 187 173 223 164 181 176 194 183 183
275 276 260 247 245 261 266 254 123 190 229 187 147 192 189 193 179 192 176 182 189 183 176 179 174 185 185 182 198 229 209 224 136 163 205 216 191 171 221 180 182 225 213 187 163 151 208 217 211
244 263 277 237 226 243 14 62 163 217 201 84 109 289 225 195 171 183 173 182 179 190 178 180 173 183 187 194 192 205 221 220 220 156 194 212 131 184 176 174 182 210 247 138 152 161 205 220 203
327 310 312 328 290 326 122 259 141 226 94 65 79 329 3 282 171 176 170 175 174 191 178 179 173 181 188 197 200 198 208 220 208 206 208 209 176 208 171 170 181 197 224 176 171 193 220 198 186
328 303 355 314 313 302 307 113 126 87 79 68 60 32 6 304 170 167 177 174 173 185 179 180 174 180 185 189 203 202 201 216 213 213 211 216 191 179 172 169 177 189 204 197 181 205 225 165 199
228 343 307 307 283 288 4 72 86 65 51 64 62 41 22 330 181 162 181 174 173 179 183 181 171 177 186 189 194 205 204 205 228 214 219 197 249 138 131 180 182 182 202 196 176 209 200 188 190
337 312 312 313 282 315 289 94 117 116 82 55 71 60 49 327 210 176 177 172 175 179 184 182 173 173 182 193 193 200 205 205 207 234 202 198 199 182 161 173 182 178 189 189 190 229 211 187 184
340 298 270 285 290 293 309 54 354 10 87 80 89 79 61 19 339 336 72 57 151 177 175 188 180 173 181 192 202 192 200 206 200 211 217 204 199 198 164 168 185 188 199 195 197 218 225 188 196